Regional Weather Roundup
Issued by NWS Newport/Morehead, NC

Current Version | Previous Version | Text Only | Print | Product List | Glossary On
Versions: 1 2 3 4 5 6 7 8 9 10 11 12 13 14 15 16 17 18 19 20 21 22 23 24 25 26 27 28 29 30 31 32 33 34 35 36 37 38 39 40 41 42 43 44 45 46 47 48 49 50
000 ASUS42 KMHX 291025 RWRMHX WEATHER ROUNDUP FOR EASTERN NORTH CAROLINA NATIONAL WEATHER SERVICE NEWPORT/MOREHEAD CITY NC 600 AM EDT SUN MAY 29 2016 NOTE: "FAIR" INDICATES FEW OR NO CLOUDS BELOW 12,000 FEET WITH NO SIGNIFICANT WEATHER AND/OR OBSTRUCTIONS TO VISIBILITY NCZ015>017-031-032-045>047-102-103-291100- NORTH COAST CITY SKY/WX TMP DP RH WIND PRES REMARKS EDENTON CLOUDY N/A N/A N/A E3 30.12R ELIZABETH CITY CLOUDY 71 70 96 E5 30.12R KITTY HAWK MOSUNNY 71 70 99 E3 30.12R MANTEO NOT AVBL $$ NCZ045>047-081-094-103-104-291100- CENTRAL COAST CITY SKY/WX TMP DP RH WIND PRES REMARKS FRISCO CLEAR 76 72 87 SE13 30.09R $$ NCZ095-097-098-100-101-291100- SOUTHERN COAST CITY SKY/WX TMP DP RH WIND PRES REMARKS BEAUFORT CLOUDY 73 71 93 E6 30.06R CEDAR ISLAND NOT AVBL JACKSONVILLE LGT RAIN 74 71 91 NE8 30.05R PINEY ISLAND CLOUDY N/A N/A N/A E10 30.07 WILMINGTON CLOUDY 73 71 93 NE5 30.03R $$ NCZ011>013-027>030-043-044-078>080-089-090>093-098-291100- COASTAL PLAIN CITY SKY/WX TMP DP RH WIND PRES REMARKS AHOSKIE LGT RAIN 65 65 98 N3 30.12R VSB 1/2 CLINTON RAIN 72 72 100 NE5 30.07S ELIZABETHTOWN HVY RAIN 71 71 100 CALM 30.04S GOLDSBORO CLOUDY 71 71 100 NE7 30.07R GREENVILLE CLOUDY 70 70 100 NE5 30.10F HAVELOCK MOCLDY 73 70 90 E5 30.08R KENANSVILLE LGT RAIN 71 70 98 CALM 30.08R KINSTON CLOUDY 72 71 96 NE6 30.09R NEW BERN PTCLDY 72 70 93 NE6 30.08S RICHLANDS CLOUDY 72 72 100 NE7 30.06R ROCKY MOUNT CLOUDY 69 68 96 NE3 30.10S WASHINGTON CLOUDY 69 69 99 NE6 30.09R FOG WHITEVILLE RAIN 72 70 95 NE7 30.01S $$ AMZ130-135-150-152-154-156-158-170-250-252-270-ANZ085-086-088-633-658-670-291100- MARINE OBSERVATIONS STATION/POSITION TIME TEMP WIND PRES WAVE SWELL AIR SEA DIR/SP/G HT/PER HT/PER (UTC) (F) (DEG/KT/KT) (MB) (FT/S) (FT/S) CHESAPEAKE LIGHT 1000 70 100/ 10/ 11 1021.0 64 E VA BEACH 0950 69 64 100/ 4/ 4 1020.3 4/ 8 3/ 8 DUCK 1000 69 61 120/ 5/ 5 1019.3 2 E DUCK 0911 67 N/A 2/ 8 OREGON INLET 1000 70 72 80/ 3/ 4 1019.6 13E OREGON INLT 1000 71 N/A 4/ 8 3/ 8 HATTERAS CG 1000 76 76 120/ 6/ 10 1018.6 DIAMOND BUOY 0950 78 79 140/ 16/ 19 1018.7 5/ 8 3/ 8 CAPE LOOKOUT 1000 75 130/ 11/ 12 1017.5 BEAUFORT LAB 1000 73 74 90/ 4/ 7 1017.2 30 SE NEW RVR IN 0925 75 N/A 6/ 8 27 SE WRIGHTSVLE 1008 75 75 160/ 12/ 17 1016.1 5 SE WRIGHTSVLE 1008 75 74 90/ 10/ 14 1017.2 225 S CAPE HAT 0950 75 75 120/ 14/ 16 1018.5 4/ 7 3/ 7 41 SE CHARLESTON 0950 78 78 140/ 27/ 33 1009.4 9/ 7 2/13 $$

USA.gov is the U.S. government's official web portal to all federal, state and local government web resources and services.